Theta_e
314 320 325 330 335 337 343 347 347 347 347 345 347 348 348 349 352 356 348 344 344 346 343 331 334 339 341 343 344 344 344 343 343 343 343 342 338 336 335 332 329 330 335 339 340 338 330 324 322
322 321 326 332 335 336 345 345 347 347 347 347 347 347 347 352 348 347 345 343 346 347 344 337 333 335 337 340 342 344 344 344 344 343 343 342 337 332 328 327 327 326 322 325 327 324 320 320 320
321 324 327 329 331 334 342 342 344 345 346 347 348 347 345 348 346 345 344 344 347 347 346 338 333 333 334 335 337 340 342 342 343 343 342 340 332 328 325 324 324 324 324 323 321 320 320 320 321
322 324 325 329 331 333 339 343 343 345 346 345 348 349 347 348 346 346 343 346 347 346 345 338 334 331 329 328 328 329 331 336 339 340 339 331 326 323 323 326 328 329 327 323 321 322 321 322 322
323 324 327 329 330 332 333 335 334 344 345 343 346 349 348 348 348 344 345 347 347 345 345 339 334 331 329 328 326 324 324 327 331 332 329 325 323 325 328 327 325 325 327 324 326 326 324 327 334
323 326 327 329 329 330 330 331 335 339 341 341 342 347 349 349 348 344 345 347 346 345 345 346 335 332 331 329 327 323 321 321 323 323 323 323 326 328 328 328 325 325 327 327 332 333 326 330 338
324 326 327 327 328 329 329 328 330 334 336 338 338 346 350 350 349 346 345 345 345 344 345 347 342 334 332 330 328 323 321 321 322 323 323 327 328 328 330 332 328 324 329 331 333 335 338 340 339
321 327 326 327 328 328 329 327 328 328 331 331 337 344 352 351 350 348 347 345 343 342 343 345 345 343 335 331 327 323 323 324 323 323 327 329 328 331 333 335 332 325 329 332 333 337 338 340 341
320 326 327 327 327 328 328 329 327 326 331 335 336 343 350 349 349 348 347 345 341 340 342 342 342 342 342 340 329 323 325 324 326 327 330 331 339 336 335 342 334 330 327 331 333 336 337 339 341
320 322 325 326 327 327 328 329 327 330 336 338 348 350 351 349 348 348 346 344 341 339 340 341 341 341 341 341 339 338 337 334 337 337 330 340 343 342 342 341 335 335 328 329 332 336 336 338 345
321 322 324 324 324 327 328 327 326 329 341 338 346 350 349 349 347 346 345 343 342 340 340 341 342 342 342 341 342 340 339 340 341 342 338 342 342 342 342 341 340 340 336 338 334 337 340 343 345
321 321 321 321 323 324 327 326 326 328 339 340 344 348 349 348 345 344 343 343 340 339 342 343 343 343 343 342 342 342 340 340 341 343 343 344 343 342 341 340 340 342 341 342 343 341 342 344 344
321 322 321 320 320 322 324 324 325 328 334 342 346 348 349 346 344 343 342 341 341 340 342 346 346 343 344 344 343 343 342 340 340 343 344 343 342 342 341 340 339 339 340 341 341 342 342 342 342
321 320 320 322 320 319 321 323 324 328 333 345 347 348 348 344 344 344 342 341 341 341 343 341 347 340 345 344 344 344 343 342 340 341 343 343 343 342 340 339 339 338 339 339 340 340 340 340 339
320 323 324 320 321 324 323 323 326 326 340 348 348 349 346 345 343 343 343 342 342 342 344 333 331 334 342 344 345 344 344 342 341 339 343 343 341 342 341 340 339 338 338 339 340 341 342 341 340
323 321 325 324 321 322 325 326 327 333 345 350 348 349 346 346 345 345 343 342 342 342 344 344 329 329 335 344 344 343 342 342 342 338 340 343 343 341 340 341 340 340 341 341 342 342 342 341 341
322 322 325 322 324 324 324 327 329 337 344 350 349 348 346 347 347 347 346 346 343 342 343 340 334 334 337 344 341 337 341 341 340 340 337 339 342 343 340 341 340 341 341 341 342 342 343 343 342
321 321 322 323 323 323 324 327 335 339 343 348 349 348 347 348 348 348 348 347 348 346 342 341 342 344 343 344 343 341 340 339 340 339 338 338 336 337 340 341 342 342 341 341 342 343 344 342 342
322 323 324 324 322 324 325 327 334 340 343 349 349 348 347 347 344 345 344 344 347 348 346 345 345 344 342 344 344 341 339 339 338 337 337 330 329 331 332 336 339 341 342 341 340 341 339 337 337
321 323 323 324 324 324 325 329 338 342 341 348 348 348 348 345 345 342 341 341 342 346 346 346 346 344 342 343 343 341 339 341 342 342 339 336 332 327 326 334 337 339 336 336 336 334 336 336 335
322 323 324 325 325 325 328 336 341 342 343 345 348 348 347 346 347 343 342 342 342 342 342 343 344 346 343 342 340 339 343 342 343 340 338 338 337 337 337 338 338 336 333 330 332 330 331 332 333
323 323 323 324 330 328 330 331 336 340 344 346 347 347 347 346 347 345 343 343 343 343 342 341 341 342 342 340 341 341 343 343 343 338 338 337 338 340 339 338 337 336 334 332 335 336 334 335 335
323 323 323 326 330 332 333 330 333 337 342 345 346 346 345 345 344 345 345 344 342 343 343 342 341 341 341 341 341 343 343 343 340 338 338 341 340 340 339 339 338 337 336 336 336 336 336 335 334
324 322 322 329 329 330 330 330 337 338 335 338 343 345 346 346 344 344 343 341 339 339 342 342 341 340 339 339 339 339 339 339 338 339 341 340 340 340 339 337 336 337 336 335 334 334 333 333 332
323 323 326 329 328 329 326 326 328 331 333 335 337 341 344 345 343 342 340 338 337 336 336 341 342 341 341 340 339 339 339 340 340 340 340 340 338 336 335 332 328 326 323 320 319 323 324 329 330
323 324 327 328 328 327 324 327 328 330 334 334 336 338 342 344 341 339 336 334 333 334 334 337 339 340 341 341 341 340 340 340 340 340 339 336 332 327 323 318 315 313 312 311 311 314 314 315 319
323 323 325 328 325 325 324 323 324 328 332 334 335 340 341 343 341 338 333 331 332 332 332 332 333 335 336 336 336 337 337 336 333 329 325 322 319 316 312 310 308 308 308 309 310 312 311 311 312
324 325 325 327 329 328 325 324 325 326 327 329 331 332 335 339 339 336 332 330 330 330 328 327 326 324 322 323 323 322 319 318 316 313 311 309 308 307 307 308 308 308 308 308 308 308 308 308 311
322 324 325 327 327 328 327 325 325 329 330 331 331 332 334 336 337 335 332 330 328 326 324 320 318 317 316 315 314 313 312 310 308 307 306 307 307 307 307 307 307 307 307 307 307 308 307 308 308
325 326 327 328 330 326 327 327 328 329 329 329 330 330 332 334 335 334 331 328 326 325 323 322 317 314 313 311 310 309 308 307 306 306 307 307 307 306 306 306 306 307 307 308 307 308 307 307 309
Wind_Speed
12 9 4 5 7 6 2 7 3 5 6 2 2 1 8 11 8 5 13 11 22 23 24 26 26 23 20 18 18 19 19 18 16 15 13 11 9 10 9 6 6 6 6 7 6 4 4 4 6
9 6 4 6 7 7 7 4 5 6 5 6 4 5 4 8 8 11 15 20 24 23 24 24 25 23 21 20 19 18 18 17 16 15 12 10 10 9 7 5 4 5 6 6 6 5 5 7 9
9 7 9 5 8 8 3 5 6 6 8 6 5 6 5 5 6 12 12 23 25 22 22 23 23 22 20 19 19 18 17 16 15 13 11 10 9 7 6 6 6 6 7 7 7 8 9 10 10
8 6 7 9 11 2 3 9 6 9 6 4 4 9 8 7 8 7 20 24 23 20 20 24 22 21 19 18 17 16 15 15 14 13 12 11 9 8 8 7 7 7 8 8 9 11 12 12 12
9 6 9 12 14 4 4 3 1 6 8 6 3 8 7 6 9 17 21 24 22 21 20 25 23 21 19 17 15 14 13 14 14 13 12 10 10 10 9 7 7 8 9 11 12 12 13 13 12
10 8 9 13 13 7 6 7 6 5 6 6 5 8 8 10 14 19 21 22 21 20 19 21 23 21 18 16 13 11 12 13 14 13 12 12 11 10 9 9 8 9 11 12 13 12 12 10 9
16 10 15 14 10 11 8 7 10 11 10 10 3 5 10 13 17 20 21 21 21 20 18 22 22 22 18 15 13 11 11 12 13 13 13 12 12 11 10 8 8 10 11 13 12 11 8 8 8
14 8 18 11 12 11 5 8 6 6 5 4 10 6 11 19 21 21 20 20 20 20 18 24 20 20 19 17 14 12 12 12 13 13 13 13 12 11 9 7 8 9 12 11 10 7 6 5 4
10 8 12 16 12 9 7 9 7 2 7 9 11 3 13 26 24 23 21 21 20 19 18 19 19 19 18 15 16 15 14 14 14 13 14 13 9 10 7 9 8 8 11 11 10 7 4 2 2
15 13 15 7 4 7 9 6 2 2 8 10 8 13 24 27 26 25 24 23 22 21 19 18 19 19 18 16 16 14 14 13 12 12 15 11 10 9 9 9 10 9 9 10 9 7 4 1 2
14 18 10 5 11 5 7 6 1 3 8 12 17 22 27 26 25 23 21 20 21 20 21 19 20 19 19 16 15 13 13 13 13 13 13 12 10 10 9 7 9 8 8 6 7 6 4 4 4
12 15 15 12 9 10 11 1 4 6 3 5 13 21 24 29 25 23 21 19 20 20 19 19 18 21 19 16 15 14 13 13 13 13 14 12 11 10 10 10 9 10 8 8 8 6 8 7 6
18 15 13 20 13 14 11 12 9 10 7 5 16 23 24 24 23 21 19 18 18 19 19 21 23 24 18 17 15 14 13 13 12 13 13 12 11 10 10 11 11 10 10 9 9 9 9 8 8
8 20 22 13 18 22 17 16 9 6 7 13 22 25 24 23 24 22 20 19 19 18 17 20 24 24 18 16 15 14 13 12 13 12 12 13 11 10 10 10 11 11 11 10 10 10 10 10 10
18 11 12 21 18 11 17 16 16 11 10 17 23 24 24 23 22 21 19 19 18 18 17 18 21 21 21 16 15 14 13 12 12 12 14 14 14 12 11 10 10 10 11 11 11 12 11 11 12
12 16 13 17 19 18 15 18 18 9 15 18 24 24 25 23 20 18 18 17 17 17 18 15 17 19 21 16 15 14 14 13 11 12 13 14 13 14 12 10 10 10 10 11 12 12 13 13 13
10 10 15 7 18 12 17 17 15 13 16 19 23 25 25 22 19 17 16 16 17 17 17 16 14 14 17 15 14 16 13 14 13 12 12 13 14 13 13 11 11 12 11 12 12 13 13 13 15
13 12 12 11 13 14 18 16 15 15 17 19 22 24 23 22 18 16 15 15 15 16 16 16 16 16 16 16 14 12 13 13 13 13 13 14 13 14 14 12 12 12 12 13 14 15 14 13 12
10 15 13 9 12 18 20 13 14 15 15 20 22 23 21 19 14 14 17 18 16 16 17 18 19 19 19 19 16 15 14 13 13 13 16 15 15 16 17 14 12 13 13 14 15 16 17 17 18
10 12 12 8 7 10 15 14 10 9 12 16 19 19 19 15 15 14 16 15 14 15 18 18 19 21 22 18 16 14 13 12 10 11 12 14 14 16 16 15 13 18 14 14 18 22 23 25 26
14 13 12 8 9 8 14 13 12 10 10 11 15 16 15 15 15 14 14 16 16 17 18 18 18 20 23 20 19 16 13 16 14 13 16 16 17 19 22 17 15 15 21 23 26 29 32 31 33
16 17 9 8 13 13 19 12 17 15 14 14 18 19 17 16 14 12 11 12 14 15 16 20 21 22 21 24 18 20 16 14 15 22 20 19 21 20 18 18 20 22 30 27 33 36 32 28 28
12 4 13 11 14 5 16 14 21 19 16 18 22 22 20 18 16 14 12 11 10 13 15 17 19 20 22 22 21 19 18 22 21 20 20 17 17 17 17 20 19 19 20 20 18 18 17 17 16
9 8 9 9 8 11 13 17 14 17 21 20 22 23 21 20 18 15 14 12 11 11 12 13 15 16 18 19 20 22 22 23 22 19 18 18 18 18 18 15 14 12 13 16 17 18 19 20 20
16 15 9 10 8 2 9 8 7 8 19 18 21 22 22 21 19 18 16 14 12 11 10 12 13 15 16 17 17 19 19 19 19 19 19 17 16 15 15 12 11 11 11 10 10 12 14 15 16
21 18 9 14 11 7 6 7 6 5 2 10 9 22 20 20 19 17 16 14 13 13 11 12 13 13 14 15 16 17 18 18 18 17 16 15 12 12 10 9 9 9 9 9 9 9 11 13 14
13 11 5 3 4 3 8 3 8 7 7 7 8 11 19 20 20 19 17 15 13 12 11 11 13 14 14 14 15 15 16 15 14 13 12 12 11 11 11 10 10 9 8 8 7 8 9 10 11
11 11 7 7 8 12 8 7 6 10 9 5 5 8 13 17 19 18 17 15 14 13 13 12 12 11 12 12 13 13 13 13 13 12 13 12 12 11 10 9 8 7 7 7 7 8 10 10 9
6 9 7 5 4 6 8 9 6 8 5 4 3 3 7 13 17 18 18 16 14 13 13 15 14 14 14 13 13 13 13 13 13 12 12 12 11 10 9 8 7 6 7 7 7 7 7 7 8
4 10 16 10 12 9 8 4 4 6 6 6 6 3 3 8 14 16 17 16 15 13 12 13 15 16 15 17 17 16 15 14 13 13 12 11 10 9 9 8 7 6 6 5 5 5 7 8 8
Wind_Direction
223 234 257 267 252 233 199 142 11 137 166 104 133 341 43 30 6 37 142 154 155 155 160 162 165 168 170 170 170 172 171 171 169 165 160 156 153 146 145 148 145 144 147 144 140 135 123 118 119
210 216 238 264 257 232 143 100 169 84 82 115 123 137 125 73 47 116 140 146 152 155 158 164 165 167 169 172 173 175 176 177 175 172 166 164 163 159 161 163 165 155 149 153 148 134 120 117 118
184 191 248 241 249 250 98 133 126 128 125 123 113 60 63 58 89 128 152 151 154 156 157 168 165 166 167 170 172 175 180 182 181 177 174 172 169 170 174 168 158 148 142 142 136 126 118 115 112
166 197 243 247 239 198 93 102 114 152 139 97 117 90 93 86 132 142 143 150 153 156 162 169 166 165 166 168 170 175 181 183 183 182 178 177 177 173 168 161 158 154 147 139 133 124 119 114 107
177 229 238 238 242 155 205 219 245 168 141 154 189 112 96 108 120 138 145 151 155 156 168 169 169 168 169 169 170 175 182 185 182 180 178 179 172 164 160 152 150 155 151 143 134 125 123 119 103
196 246 234 232 224 196 210 209 176 185 152 127 189 135 104 131 132 146 150 154 159 160 168 171 171 172 173 171 173 175 180 182 182 180 175 172 167 161 153 139 138 147 146 145 137 129 126 120 104
238 216 241 254 250 193 216 157 203 202 208 191 203 182 130 146 148 150 153 157 160 162 167 167 172 176 177 177 176 175 175 174 174 171 168 168 165 162 154 136 136 141 148 151 146 136 126 114 105
232 260 249 240 236 227 148 181 155 200 213 159 184 181 166 165 152 151 153 158 162 164 172 173 172 174 177 182 178 175 175 175 170 168 167 168 168 168 164 150 148 145 157 160 153 147 135 121 88
211 239 240 230 229 222 157 191 165 197 217 191 189 160 145 158 152 152 155 159 163 167 175 169 174 178 173 179 181 176 177 175 172 173 173 170 163 167 165 169 177 158 162 170 168 168 164 135 28
211 228 240 265 221 235 166 216 202 274 184 176 139 128 144 152 156 158 163 164 168 169 174 174 175 179 175 181 182 174 177 179 174 177 181 167 180 175 172 204 178 173 167 179 184 192 198 191 240
217 240 236 250 250 253 187 211 311 297 227 204 182 157 156 157 160 162 165 170 170 175 171 177 177 179 180 181 182 180 183 186 187 184 181 179 190 200 181 197 190 188 190 186 208 223 236 236 244
245 226 249 239 213 230 229 288 251 265 241 194 189 170 165 162 163 163 164 167 169 175 179 174 182 181 182 184 181 187 184 189 192 193 188 194 188 200 195 196 197 197 213 206 209 223 228 236 251
222 246 229 236 249 234 241 250 270 258 241 178 172 172 169 165 159 161 161 165 169 175 184 180 186 186 185 186 189 193 191 189 194 196 200 199 195 200 204 205 203 209 216 221 229 230 243 256 266
207 235 242 240 231 238 242 243 237 202 207 176 172 171 169 167 160 158 161 166 170 172 183 190 193 200 184 192 196 199 198 202 194 202 208 202 201 209 207 214 213 218 221 227 237 248 252 261 263
237 246 220 231 227 223 221 236 224 236 184 173 175 170 166 165 161 161 165 170 173 173 180 195 198 201 184 201 205 203 210 207 207 204 211 209 210 221 203 217 223 230 234 236 247 245 258 260 266
219 232 243 200 211 218 212 206 204 188 177 174 170 165 164 164 161 162 167 173 178 179 184 189 199 201 199 202 208 210 212 211 218 212 214 219 220 221 229 226 233 237 240 243 248 255 257 266 271
200 223 216 158 192 188 205 212 145 180 180 168 168 162 162 161 164 167 173 178 184 188 194 199 206 208 201 209 213 208 210 211 216 219 218 223 221 225 231 231 240 250 250 248 251 257 265 266 268
192 222 198 215 181 202 196 219 153 178 181 172 166 162 165 165 168 166 172 183 193 197 207 213 208 199 199 201 205 211 212 212 211 217 222 225 228 232 238 239 243 254 260 259 263 259 259 263 267
209 210 194 163 171 193 194 190 172 174 184 172 168 167 170 169 169 172 183 197 195 203 208 211 209 208 205 198 203 205 208 210 214 215 220 231 237 236 238 241 244 254 253 254 262 279 276 277 277
231 208 195 113 196 228 189 176 164 187 192 179 176 178 175 176 168 173 189 197 201 204 210 212 209 210 210 204 197 202 204 206 201 209 220 231 236 246 252 243 235 235 251 282 280 283 278 275 274
220 219 198 207 165 232 187 173 190 190 192 198 192 189 188 187 177 176 188 201 205 207 210 209 208 209 209 202 201 202 199 203 210 225 234 235 237 251 255 255 251 246 252 254 243 261 271 270 260
220 215 237 195 193 204 204 201 192 181 197 198 198 197 195 192 187 177 177 193 203 209 212 213 213 213 209 212 207 208 206 215 215 229 245 255 253 255 264 265 257 256 250 252 247 254 263 268 264
234 190 214 211 214 166 193 241 188 178 204 202 203 199 198 195 193 187 178 181 187 200 206 212 216 216 218 217 209 217 219 227 239 245 249 250 255 256 254 261 265 260 255 259 257 253 247 245 250
220 193 198 197 210 218 168 217 157 189 208 204 198 199 197 195 197 192 187 180 184 194 199 199 203 212 217 219 221 222 230 237 241 238 241 248 252 257 262 266 265 253 247 252 253 251 254 259 263
199 185 170 197 200 237 138 214 46 172 197 204 196 195 198 197 197 195 193 188 192 183 179 192 196 199 206 211 217 224 227 228 233 243 246 243 245 252 258 254 251 250 249 252 255 256 258 258 259
200 198 198 205 202 148 149 228 110 76 79 200 204 198 199 199 200 199 197 193 192 186 179 187 189 197 201 206 211 218 223 225 228 229 233 232 226 229 237 236 242 247 252 256 258 259 257 260 262
168 214 326 307 33 274 151 111 140 143 142 168 192 205 203 206 207 204 198 193 186 180 181 179 188 196 198 204 205 207 209 212 213 218 215 218 223 234 240 246 251 254 258 260 261 256 262 265 267
205 166 192 217 217 236 162 177 118 159 162 135 161 192 205 206 207 207 202 193 187 183 186 188 194 199 206 203 202 203 206 205 206 211 217 219 226 228 228 232 236 244 257 266 270 280 280 278 274
166 190 231 298 306 260 218 195 87 91 84 76 80 151 196 201 205 205 199 196 191 190 192 198 201 204 204 206 212 212 210 210 211 214 217 218 218 216 219 225 235 250 264 272 272 275 284 294 297
320 242 202 226 191 229 294 101 93 88 70 59 56 89 175 195 199 199 198 195 194 197 196 200 204 206 207 209 211 213 217 218 217 217 217 217 218 218 220 229 240 254 270 286 298 308 315 318 316